Location: *
(46.1866°S, 178.5290°W)
Time: 02:29:06
(UTC+00:00)

USA 234 - Pass Details

Date: 19 May 2021
Orbit: 1102 x 1105 km, 123.0° (Epoch: 18 April)

Event Time Altitude Azimuth Distance (km) Brightness Sun altitude
Exits shadow 07:42:56 59° 195° (SSW) 1,271 3.5 -33.5°
Maximum altitude 07:43:14 60° 207° (SSW) 1,265 3.5 -33.5°
Drops below altitude 10° 07:49:41 10° 285° (WNW) 2,979 6.2 -34.6°
Sets 07:52:12 0° 288° (WNW) 3,933 7.0 -35.1°
